Humidity-temperature Sensor

Selected Measurement Type: Relative Humidity

 
Relative Humidity [%]     6 entries per hour
Showing data from 9/21/2019 (17:50:00 Z) to 9/14/2019 (00:01:00 Z)
Previous Next [ Day | 3-Days | 7-Days ]
First Last
Prev [ Day | 3-Days | 7-Days ] Next
First Last

Start Time:     :
End Time:     :     
Time (in GMT) :00 :50 :40 :30 :20 :10
Previous Next [ Day | 3-Days | 7-Days ]
First Last
Prev [ Day | 3-Days | 7-Days ] Next
First Last


123 => good data
MM => data is determined as missing
-- => data not received/configured
Back to Top Back to Top
9/21/2019 18:00 to 17:10 -- 76.38 77.01 78.73 77.89 77.73
9/21/2019 17:00 to 16:10 79.06 79.49 79.76 80.68 79.59 80.29
9/21/2019 16:00 to 15:10 80.31 80.64 80.86 80.06 81.60 81.93
9/21/2019 15:00 to 14:10 82.34 82.32 82.89 83.18 82.58 82.91
9/21/2019 14:00 to 13:10 82.64 83.75 83.40 83.44 84.44 85.08
9/21/2019 13:00 to 12:10 85.67 83.05 85.90 84.94 84.98 85.98
9/21/2019 12:00 to 11:10 86.64 86.23 86.74 86.06 86.51 85.88
9/21/2019 11:00 to 10:10 86.33 88.66 88.03 87.45 86.57 86.70
9/21/2019 10:00 to 9:10 87.88 87.00 87.62 88.68 89.87 94.38
9/21/2019 09:00 to 8:10 93.37 94.48 96.65 96.18 92.70 92.04
9/21/2019 08:00 to 7:10 91.86 92.80 95.07 96.10 96.65 95.24
9/21/2019 07:00 to 6:10 94.29 93.05 92.76 90.10 90.67 89.77
9/21/2019 06:00 to 5:10 90.10 89.15 91.80 91.00 90.01 91.14
9/21/2019 05:00 to 4:10 91.96 93.27 92.08 91.18 90.61 90.53
9/21/2019 04:00 to 3:10 93.17 92.41 93.37 94.79 94.34 94.76
9/21/2019 03:00 to 2:10 94.60 96.26 94.93 95.34 96.81 97.65
9/21/2019 02:00 to 1:10 96.83 96.32 96.40 94.07 91.76 93.58
9/21/2019 01:00 to 0:10 94.93 93.76 94.27 94.40 92.39 91.92
9/21/2019 00:00 to 23:10 92.23 91.67 92.98 92.57 92.96 92.98
9/20/2019 23:00 to 22:10 93.02 93.43 93.62 94.70 94.17 94.64
9/20/2019 22:00 to 21:10 95.50 94.93 95.11 95.03 95.46 95.05
9/20/2019 21:00 to 20:10 95.40 94.34 93.99 94.62 94.89 94.64
9/20/2019 20:00 to 19:10 94.68 94.46 95.22 95.93 96.14 96.26
9/20/2019 19:00 to 18:10 96.71 96.81 97.45 97.18 96.94 97.20
9/20/2019 18:00 to 17:10 99.04 98.96 99.15 99.43 99.62 99.62
9/20/2019 17:00 to 16:10 99.74 99.74 99.84 -- -- --
9/20/2019 16:00 to 15:10 -- -- -- -- -- --
9/20/2019 15:00 to 14:10 -- 99.45 99.50 99.21 98.70 97.92
9/20/2019 14:00 to 13:10 96.73 94.34 94.13 94.60 93.86 93.68
9/20/2019 13:00 to 12:10 93.07 93.37 93.37 93.39 92.74 92.06
9/20/2019 12:00 to 11:10 91.88 90.49 91.12 91.51 91.92 92.06
9/20/2019 11:00 to 10:10 91.98 92.10 92.53 92.27 92.68 92.62
9/20/2019 10:00 to 9:10 93.29 93.35 92.23 93.02 93.70 95.54
9/20/2019 09:00 to 8:10 95.99 96.32 96.98 97.82 97.04 94.87
9/20/2019 08:00 to 7:10 89.87 90.04 91.55 90.26 89.54 90.79
9/20/2019 07:00 to 6:10 90.83 90.83 90.98 90.53 91.55 90.94
9/20/2019 06:00 to 5:10 91.80 92.82 92.27 93.13 92.98 92.94
9/20/2019 05:00 to 4:10 92.49 92.88 93.88 94.76 93.29 91.51
9/20/2019 04:00 to 3:10 92.06 90.71 89.07 87.93 87.86 89.03
9/20/2019 03:00 to 2:10 88.74 89.71 91.26 92.43 92.08 91.96
9/20/2019 02:00 to 1:10 92.53 87.78 89.83 89.13 87.15 86.72
9/20/2019 01:00 to 0:10 86.70 88.44 86.27 85.30 84.08 85.06
9/20/2019 00:00 to 23:10 85.18 84.83 85.71 87.11 86.84 88.13
9/19/2019 23:00 to 22:10 88.25 88.44 88.97 88.95 89.50 91.12
9/19/2019 22:00 to 21:10 90.92 92.72 93.80 94.62 94.34 91.84
9/19/2019 21:00 to 20:10 82.19 81.86 81.54 81.50 81.46 80.31
9/19/2019 20:00 to 19:10 80.19 81.41 81.70 80.88 81.60 81.05
9/19/2019 19:00 to 18:10 80.12 79.65 79.92 80.29 80.31 79.96
9/19/2019 18:00 to 17:10 79.71 80.47 80.27 79.86 79.49 79.24
9/19/2019 17:00 to 16:10 79.90 79.69 79.28 78.92 78.24 78.75
9/19/2019 16:00 to 15:10 77.85 77.58 77.50 77.75 76.74 77.83
9/19/2019 15:00 to 14:10 78.20 77.89 79.31 78.47 77.95 78.40
9/19/2019 14:00 to 13:10 79.06 79.65 77.77 77.40 77.65 76.83
9/19/2019 13:00 to 12:10 77.07 76.89 78.01 77.58 77.38 77.20
9/19/2019 12:00 to 11:10 81.05 80.92 81.41 80.29 79.53 81.25
9/19/2019 11:00 to 10:10 80.88 82.56 79.65 79.20 78.30 78.40
9/19/2019 10:00 to 9:10 78.01 78.34 77.60 77.75 78.08 77.63
9/19/2019 09:00 to 8:10 77.26 77.20 76.93 76.81 78.12 77.34
9/19/2019 08:00 to 7:10 76.62 76.60 77.63 78.22 78.12 78.04
9/19/2019 07:00 to 6:10 78.85 78.96 78.28 79.43 79.18 77.99
9/19/2019 06:00 to 5:10 77.77 78.44 77.93 77.79 78.24 76.77
9/19/2019 05:00 to 4:10 77.15 76.99 76.32 76.74 76.74 76.60
9/19/2019 04:00 to 3:10 77.11 75.84 76.46 75.43 75.05 75.45
9/19/2019 03:00 to 2:10 76.52 75.76 76.13 75.07 74.80 74.51
9/19/2019 02:00 to 1:10 75.03 75.50 74.57 76.46 75.80 75.25
9/19/2019 01:00 to 0:10 75.68 76.32 76.79 75.60 76.85 75.39
9/19/2019 00:00 to 23:10 75.99 74.96 74.31 73.82 74.23 73.55
9/18/2019 23:00 to 22:10 74.23 74.16 74.70 74.86 73.76 74.16
9/18/2019 22:00 to 21:10 74.00 73.18 73.88 73.71 73.35 73.71
9/18/2019 21:00 to 20:10 73.02 72.81 73.53 73.33 73.16 72.92
9/18/2019 20:00 to 19:10 73.43 73.45 73.00 73.47 72.26 71.59
9/18/2019 19:00 to 18:10 72.69 72.90 72.08 72.49 72.47 71.79
9/18/2019 18:00 to 17:10 71.73 71.18 71.34 71.32 71.54 72.77
9/18/2019 17:00 to 16:10 72.40 70.99 72.49 72.30 72.59 71.67
9/18/2019 16:00 to 15:10 73.18 72.81 72.81 71.99 72.65 72.57
9/18/2019 15:00 to 14:10 71.79 72.02 71.71 71.75 70.34 69.54
9/18/2019 14:00 to 13:10 70.30 71.28 70.19 70.38 71.46 70.56
9/18/2019 13:00 to 12:10 70.93 70.17 70.54 69.78 70.42 70.34
9/18/2019 12:00 to 11:10 70.77 70.46 71.28 69.46 70.56 69.78
9/18/2019 11:00 to 10:10 69.05 70.38 70.50 70.30 71.15 70.17
9/18/2019 10:00 to 9:10 71.85 70.03 69.66 70.32 70.54 71.22
9/18/2019 09:00 to 8:10 71.11 71.48 70.66 70.05 70.17 70.34
9/18/2019 08:00 to 7:10 70.75 69.76 68.60 67.67 67.35 68.02
9/18/2019 07:00 to 6:10 69.78 69.13 69.15 68.70 69.89 70.36
9/18/2019 06:00 to 5:10 69.41 69.89 70.34 69.99 69.56 69.56
9/18/2019 05:00 to 4:10 69.23 70.19 69.35 69.13 70.46 69.74
9/18/2019 04:00 to 3:10 69.50 69.33 71.48 70.11 70.62 69.21
9/18/2019 03:00 to 2:10 68.10 69.25 68.04 68.47 68.08 66.26
9/18/2019 02:00 to 1:10 67.16 68.60 67.69 67.98 66.98 67.92
9/18/2019 01:00 to 0:10 67.67 69.50 69.37 69.74 68.58 69.68
9/18/2019 00:00 to 23:10 70.95 70.93 71.61 71.26 71.07 70.79
9/17/2019 23:00 to 22:10 71.77 70.42 70.50 68.51 68.25 68.76
9/17/2019 22:00 to 21:10 69.74 68.45 68.57 68.33 70.77 70.56
9/17/2019 21:00 to 20:10 71.79 72.88 72.10 71.97 72.44 72.20
9/17/2019 20:00 to 19:10 71.48 72.16 72.20 72.01 71.15 73.37
9/17/2019 19:00 to 18:10 73.30 72.85 73.24 71.81 71.99 73.69
9/17/2019 18:00 to 17:10 72.18 72.22 71.22 70.52 71.95 71.75
9/17/2019 17:00 to 16:10 72.44 72.92 72.63 73.94 74.62 73.31
9/17/2019 16:00 to 15:10 71.75 71.20 73.04 73.39 72.20 73.00
9/17/2019 15:00 to 14:10 72.30 71.28 72.63 70.64 72.22 72.22
9/17/2019 14:00 to 13:10 72.34 73.08 72.92 73.47 72.67 72.20
9/17/2019 13:00 to 12:10 71.16 71.58 72.79 74.39 72.32 72.18
9/17/2019 12:00 to 11:10 72.71 73.20 73.39 73.12 73.49 72.55
9/17/2019 11:00 to 10:10 74.86 72.36 72.47 72.79 73.90 73.28
9/17/2019 10:00 to 9:10 73.94 74.66 75.03 74.59 72.49 73.41
9/17/2019 09:00 to 8:10 74.72 72.22 73.96 73.88 73.90 74.25
9/17/2019 08:00 to 7:10 72.20 72.14 72.73 73.63 71.71 73.59
9/17/2019 07:00 to 6:10 74.04 72.40 73.47 72.06 72.26 73.57
9/17/2019 06:00 to 5:10 72.87 71.46 72.94 71.56 73.00 74.10
9/17/2019 05:00 to 4:10 72.87 73.31 72.79 72.44 72.49 71.56
9/17/2019 04:00 to 3:10 71.77 71.99 73.39 73.06 73.06 72.69
9/17/2019 03:00 to 2:10 72.24 72.32 71.71 73.10 73.33 73.37
9/17/2019 02:00 to 1:10 72.67 72.18 74.49 73.14 74.82 72.98
9/17/2019 01:00 to 0:10 73.82 74.53 74.04 75.84 74.27 73.86
9/17/2019 00:00 to 23:10 74.92 74.57 74.84 74.25 73.86 75.64
9/16/2019 23:00 to 22:10 75.07 74.19 75.41 76.91 76.79 77.13
9/16/2019 22:00 to 21:10 76.77 74.62 75.84 75.27 74.27 75.97
9/16/2019 21:00 to 20:10 75.13 75.19 76.05 75.84 77.65 75.70
9/16/2019 20:00 to 19:10 75.15 76.01 74.29 74.14 71.87 73.37
9/16/2019 19:00 to 18:10 72.87 74.60 75.25 76.09 75.07 75.66
9/16/2019 18:00 to 17:10 75.00 75.17 74.21 75.33 73.88 73.45
9/16/2019 17:00 to 16:10 73.86 74.84 75.66 75.58 75.93 76.70
9/16/2019 16:00 to 15:10 75.25 76.32 76.52 76.81 75.02 72.81
9/16/2019 15:00 to 14:10 72.32 74.82 73.30 74.37 75.74 75.50
9/16/2019 14:00 to 13:10 75.78 75.35 74.17 74.96 74.53 74.12
9/16/2019 13:00 to 12:10 74.92 75.09 74.68 75.68 75.68 75.31
9/16/2019 12:00 to 11:10 74.78 76.54 76.74 76.72 76.64 77.75
9/16/2019 11:00 to 10:10 76.79 76.13 76.01 76.87 76.66 76.79
9/16/2019 10:00 to 9:10 76.54 77.28 77.54 77.50 76.95 78.36
9/16/2019 09:00 to 8:10 79.02 79.63 79.92 79.63 80.06 80.04
9/16/2019 08:00 to 7:10 80.98 81.00 81.74 81.19 81.43 81.50
9/16/2019 07:00 to 6:10 81.19 82.52 81.46 81.37 81.48 81.25
9/16/2019 06:00 to 5:10 81.86 80.51 82.44 82.40 81.72 81.48
9/16/2019 05:00 to 4:10 82.54 82.83 82.87 82.32 82.50 84.40
9/16/2019 04:00 to 3:10 85.88 84.30 81.84 83.52 83.81 84.08
9/16/2019 03:00 to 2:10 83.30 83.34 85.55 86.02 86.47 84.75
9/16/2019 02:00 to 1:10 84.71 84.24 82.99 83.91 83.17 83.03
9/16/2019 01:00 to 0:10 82.81 82.54 81.41 82.13 81.31 82.21
9/16/2019 00:00 to 23:10 82.09 81.80 81.72 80.64 80.94 81.84
9/15/2019 23:00 to 22:10 81.48 80.29 80.21 81.58 81.43 81.00
9/15/2019 22:00 to 21:10 80.31 80.66 80.29 80.43 80.78 79.59
9/15/2019 21:00 to 20:10 79.86 79.63 80.51 80.35 80.88 80.51
9/15/2019 20:00 to 19:10 80.41 79.80 80.72 81.15 81.82 81.37
9/15/2019 19:00 to 18:10 80.74 81.62 80.60 80.62 79.45 78.92
9/15/2019 18:00 to 17:10 78.69 79.18 80.31 79.69 79.67 79.82
9/15/2019 17:00 to 16:10 79.67 79.69 80.66 79.14 80.82 80.70
9/15/2019 16:00 to 15:10 80.53 79.90 80.76 81.66 81.02 81.43
9/15/2019 15:00 to 14:10 80.98 80.37 81.45 79.49 80.70 82.44
9/15/2019 14:00 to 13:10 80.64 81.89 83.28 82.70 82.13 83.20
9/15/2019 13:00 to 12:10 82.93 82.70 80.76 82.11 81.27 80.43
9/15/2019 12:00 to 11:10 82.07 82.56 84.34 82.25 82.70 84.18
9/15/2019 11:00 to 10:10 81.29 84.55 82.54 83.40 82.62 84.22
9/15/2019 10:00 to 9:10 83.30 83.44 84.73 88.09 86.55 84.77
9/15/2019 09:00 to 8:10 85.04 87.04 89.11 89.15 86.59 86.78
9/15/2019 08:00 to 7:10 87.33 86.80 84.18 83.83 83.32 85.22
9/15/2019 07:00 to 6:10 86.68 83.91 83.97 87.27 84.79 83.99
9/15/2019 06:00 to 5:10 84.53 84.57 85.45 85.20 84.57 86.12
9/15/2019 05:00 to 4:10 85.37 83.54 84.40 86.47 86.98 87.02
9/15/2019 04:00 to 3:10 85.10 84.69 85.76 85.67 85.63 85.80
9/15/2019 03:00 to 2:10 85.73 86.57 86.16 86.04 85.14 83.85
9/15/2019 02:00 to 1:10 84.75 84.69 85.28 84.14 84.63 84.79
9/15/2019 01:00 to 0:10 84.98 83.83 84.75 85.14 85.57 86.00
9/15/2019 00:00 to 23:10 84.89 86.64 85.96 85.47 85.51 86.64
9/14/2019 23:00 to 22:10 84.22 84.87 84.81 84.92 84.94 84.34
9/14/2019 22:00 to 21:10 84.18 83.79 84.89 84.75 83.97 84.16
9/14/2019 21:00 to 20:10 85.84 86.29 84.85 84.01 85.61 82.75
9/14/2019 20:00 to 19:10 84.46 84.92 84.63 83.71 81.07 81.97
9/14/2019 19:00 to 18:10 83.11 81.97 83.07 82.23 82.15 83.34
9/14/2019 18:00 to 17:10 83.44 83.22 84.83 86.12 85.59 85.12
9/14/2019 17:00 to 16:10 84.63 83.52 84.61 84.67 84.96 87.11
9/14/2019 16:00 to 15:10 85.41 83.79 84.06 86.08 85.18 89.18
9/14/2019 15:00 to 14:10 89.99 85.30 85.73 86.00 88.36 88.46
9/14/2019 14:00 to 13:10 88.70 88.40 89.01 87.27 87.52 89.34
9/14/2019 13:00 to 12:10 90.16 87.58 89.52 90.65 90.49 90.96
9/14/2019 12:00 to 11:10 92.02 93.09 92.61 92.39 93.62 89.87
9/14/2019 11:00 to 10:10 90.59 89.15 87.82 89.24 94.09 89.75
9/14/2019 10:00 to 9:10 89.97 89.48 88.52 87.70 87.99 86.92
9/14/2019 09:00 to 8:10 85.14 85.53 85.69 86.06 87.47 84.87
9/14/2019 08:00 to 7:10 86.61 87.43 86.04 85.57 84.24 83.60
9/14/2019 07:00 to 6:10 85.37 85.32 85.32 83.85 84.94 86.94
9/14/2019 06:00 to 5:10 87.27 86.55 88.13 88.93 89.11 87.41
9/14/2019 05:00 to 4:10 86.12 87.05 87.86 89.50 90.38 88.07
9/14/2019 04:00 to 3:10 87.95 87.76 91.02 88.23 87.80 85.90
9/14/2019 03:00 to 2:10 87.21 91.26 92.19 93.07 92.06 87.37
9/14/2019 02:00 to 1:10 85.59 88.01 87.84 92.47 93.11 94.19
9/14/2019 01:00 to 0:10 90.10 90.90 92.68 89.13 86.16 86.57